User: anonymous   Login
Location: Unspecified
(0.0000°N, 0.0000°E)
Time: 03:13:29
(UTC+00:00)
Language:

Kosmos-1605 - Orbit

View from above orbital plane
View from above orbital plane
View from above satellite
View from above satellite

Ground track
Ground track

The orbit data is extracted from the following two-line orbital elements,

1 15359U 84109A   18202.41674917  .00000022  00000-0  63796-5 0  9997
2 15359  82.9414 133.0601 0047802 100.5954  27.8149 13.75165953695176
Epoch (UTC): 21 July 2018 10:00:07
Eccentricity: 0.0047802
inclination: 82.9414°
perigee height: 946 km
apogee height: 1016 km
right ascension of ascending node: 133.0601°
argument of perigee: 100.5954°
revolutions per day: 13.75165953
mean anomaly at epoch: 27.8149°
orbit number at epoch: 69517

The dashed part of the orbit path shows where the satellite is in the earth's shadow,  

DLR